| time (UTC) | temp C | wind direction | speed KPH | gust KPH | rain 1hr cm | rain 24hr cm | rain mn cm | humidity % | barometer mb |
| 20260508170002 | 18 | 216 | 6.4 | 14.5 | 0.00 | 0.00 | 0.00 | 62 | 1019.2 |
| 20260508165002 | 18 | 215 | 6.4 | 11.3 | 0.00 | 0.00 | 0.00 | 67 | 1019.4 |
| 20260508164002 | 18 | 217 | 4.8 | 16.1 | 0.00 | 0.00 | 0.00 | 67 | 1019.5 |
| 20260508152003 | 17 | 241 | 3.2 | 9.7 | 0.00 | 0.00 | 0.00 | 68 | 1020.4 |
| 20260508151002 | 16 | 346 | 3.2 | 11.3 | 0.00 | 0.00 | 0.00 | 66 | 1020.6 |
| 20260508150002 | 16 | 117 | 1.6 | 9.7 | 0.00 | 0.00 | 0.00 | 66 | 1020.6 |
| 20260508145003 | 16 | 296 | 3.2 | 4.8 | 0.00 | 0.00 | 0.00 | 67 | 1020.6 |
| 20260508144003 | 16 | 59 | 1.6 | 14.5 | 0.00 | 0.00 | 0.00 | 68 | 1020.4 |
| 20260508143003 | 16 | 49 | 3.2 | 14.5 | 0.00 | 0.00 | 0.00 | 64 | 1020.4 |
| 20260508132003 | 12 | 271 | 0.0 | 0.0 | 0.00 | 0.00 | 0.00 | 85 | 1020.4 |
| 20260508121002 | 8 | 57 | 0.0 | 1.6 | 0.00 | 0.13 | 0.00 | 87 | 1020.1 |
| 20260508120002 | 7 | 159 | 0.0 | 0.0 | 0.00 | 0.18 | 0.00 | 87 | 1019.9 |
| 20260508115002 | 7 | 151 | 0.0 | 1.6 | 0.00 | 0.30 | 0.00 | 87 | 1019.6 |
| 20260508114003 | 7 | 211 | 0.0 | 1.6 | 0.00 | 0.43 | 0.00 | 87 | 1019.5 |
| 20260508113002 | 7 | 205 | 0.0 | 0.0 | 0.00 | 0.48 | 0.00 | 87 | 1019.3 |
| 20260508112002 | 6 | 205 | 0.0 | 0.0 | 0.00 | 0.48 | 0.00 | 86 | 1019.2 |
| 20260508111003 | 6 | 216 | 0.0 | 0.0 | 0.00 | 0.48 | 0.00 | 86 | 1018.9 |
| 20260508110002 | 6 | 294 | 0.0 | 3.2 | 0.00 | 0.48 | 0.00 | 86 | 1018.8 |
| 20260508105002 | 6 | 294 | 0.0 | 1.6 | 0.00 | 0.48 | 0.00 | 86 | 1018.5 |
| 20260508104002 | 6 | 294 | 0.0 | 1.6 | 0.00 | 0.48 | 0.00 | 86 | 1018.3 |
| 20260508103003 | 6 | 294 | 0.0 | 0.0 | 0.00 | 0.48 | 0.00 | 86 | 1018.0 |
| 20260508102002 | 6 | 294 | 0.0 | 0.0 | 0.00 | 0.56 | 0.00 | 86 | 1017.9 |
| 20260508101002 | 6 | 294 | 0.0 | 0.0 | 0.00 | 1.22 | 0.00 | 86 | 1017.7 |
| 20260508100002 | 7 | 294 | 0.0 | 0.0 | 0.00 | 1.27 | 0.00 | 86 | 1017.7 |
| 20260508095002 | 7 | 294 | 0.0 | 0.0 | 0.00 | 1.35 | 0.00 | 86 | 1017.6 |
| 20260508094002 | 7 | 294 | 0.0 | 0.0 | 0.00 | 1.47 | 0.00 | 86 | 1017.5 |
| 20260508093002 | 7 | 294 | 0.0 | 0.0 | 0.00 | 1.52 | 0.00 | 86 | 1017.6 |
| 20260508092002 | 7 | 294 | 0.0 | 1.6 | 0.00 | 1.52 | 0.00 | 86 | 1017.5 |
| 20260508080002 | 8 | 294 | 0.0 | 3.2 | 0.00 | 1.88 | 0.00 | 86 | 1016.9 |
| 20260508075002 | 8 | 294 | 1.6 | 3.2 | 0.00 | 2.01 | 0.00 | 86 | 1016.8 |
| 20260508074003 | 8 | 294 | 0.0 | 1.6 | 0.00 | 2.01 | 0.00 | 86 | 1017.0 |
| 20260508073003 | 8 | 294 | 0.0 | 4.8 | 0.00 | 2.06 | 0.00 | 86 | 1016.9 |
| 20260508072002 | 8 | 294 | 0.0 | 3.2 | 0.00 | 2.24 | 0.00 | 86 | 1017.0 |
| 20260508071002 | 9 | 294 | 0.0 | 1.6 | 0.00 | 2.34 | 0.00 | 85 | 1017.0 |
| 20260508070004 | 9 | 294 | 0.0 | 1.6 | 0.00 | 2.39 | 0.00 | 85 | 1016.9 |
| 20260508045002 | 10 | 306 | 0.0 | 4.8 | 0.00 | 2.62 | 0.00 | 86 | 1017.3 |
| 20260508044002 | 10 | 306 | 1.6 | 4.8 | 0.00 | 2.64 | 0.00 | 85 | 1017.1 |
| 20260508043002 | 10 | 305 | 0.0 | 3.2 | 0.00 | 2.67 | 0.00 | 85 | 1017.1 |
| 20260508042003 | 10 | 305 | 1.6 | 3.2 | 0.00 | 2.67 | 0.00 | 85 | 1017.1 |
| 20260508041003 | 10 | 305 | 0.0 | 1.6 | 0.00 | 2.67 | 0.00 | 85 | 1016.9 |
| 20260508040003 | 10 | 305 | 0.0 | 1.6 | 0.00 | 2.67 | 0.00 | 85 | 1016.8 |
| 20260508035003 | 10 | 305 | 0.0 | 1.6 | 0.00 | 2.67 | 2.67 | 85 | 1016.9 |
| 20260508012002 | 13 | 305 | 0.0 | 0.0 | 0.00 | 3.20 | 2.67 | 83 | 1015.8 |
| 20260508011003 | 13 | 305 | 0.0 | 3.2 | 0.00 | 3.20 | 2.67 | 83 | 1015.8 |
| 20260508010003 | 13 | 305 | 0.0 | 3.2 | 0.00 | 3.20 | 2.67 | 82 | 1015.5 |
| 20260508005002 | 14 | 305 | 0.0 | 4.8 | 0.00 | 3.23 | 2.67 | 82 | 1015.4 |
| 20260508004002 | 14 | 305 | 1.6 | 3.2 | 0.00 | 3.38 | 2.67 | 81 | 1015.4 |
| 20260508002002 | 15 | 305 | 0.0 | 0.0 | 0.00 | 3.61 | 2.67 | 77 | 1015.1 |
| 20260508001002 | 15 | 305 | 0.0 | 3.2 | 0.00 | 3.63 | 2.67 | 76 | 1015.0 |
| 20260508000003 | 15 | 305 | 0.0 | 4.8 | 0.00 | 3.66 | 2.67 | 76 | 1014.9 |
| 20260507235003 | 16 | 302 | 3.2 | 12.9 | 0.00 | 4.09 | 2.67 | 75 | 1015.0 |
| 20260507234003 | 16 | 273 | 4.8 | 9.7 | 0.00 | 4.09 | 2.67 | 75 | 1014.7 |
| 20260507233003 | 16 | 340 | 3.2 | 4.8 | 0.00 | 4.09 | 2.67 | 76 | 1014.6 |
| 20260507232002 | 16 | 341 | 3.2 | 12.9 | 0.00 | 4.09 | 2.67 | 75 | 1014.6 |
| 20260507231002 | 16 | 314 | 8.0 | 19.3 | 0.00 | 4.09 | 2.67 | 74 | 1014.6 |
| 20260507230003 | 16 | 321 | 12.9 | 19.3 | 0.00 | 4.11 | 2.67 | 74 | 1014.6 |
| 20260507225003 | 16 | 291 | 8.0 | 14.5 | 0.00 | 4.11 | 2.67 | 75 | 1014.5 |
| 20260507224003 | 16 | 324 | 8.0 | 19.3 | 0.00 | 4.11 | 2.67 | 75 | 1014.4 |
| 20260507223002 | 16 | 344 | 11.3 | 22.5 | 0.00 | 4.11 | 2.67 | 75 | 1014.3 |
| 20260507202002 | 20 | 253 | 11.3 | 32.2 | 0.00 | 4.24 | 2.67 | 69 | 1013.0 |
| 20260507201003 | 20 | 310 | 14.5 | 25.7 | 0.00 | 4.24 | 2.67 | 68 | 1012.9 |
| 20260507200003 | 20 | 297 | 12.9 | 22.5 | 0.00 | 4.24 | 2.67 | 72 | 1013.1 |
| 20260507195002 | 20 | 293 | 19.3 | 32.2 | 0.00 | 4.24 | 2.67 | 71 | 1013.1 |
| 20260507194003 | 19 | 235 | 9.7 | 24.1 | 0.00 | 4.24 | 2.67 | 75 | 1013.2 |
| 20260507193003 | 20 | 335 | 8.0 | 24.1 | 0.00 | 4.24 | 2.67 | 74 | 1013.1 |
| 20260507171003 | 18 | 264 | 16.1 | 25.7 | 0.00 | 4.24 | 2.67 | 78 | 1013.7 |